Regional Weather Roundup
Issued by NWS

Home | Current Version | Previous Version | Graphics & Text | Print | Product List | Glossary On
Versions: 1 2 3 4 5 6 7 8 9 10 11 12 13 14 15 16 17 18 19 20 21 22 23 24 25 26 27 28 29 30 31 32 33 34 35 36 37 38 39 40 41 42 43 44 45 46 47 48 49 50
000
ASUS43 KLSX 272207
RWRMO

WEATHER SUMMARY FOR MISSOURI
NATIONAL WEATHER SERVICE SPRINGFIELD MO
500 PM CDT MON APR 27 2015

NOTE: "FAIR" INDICATES FEW OR NO CLOUDS BELOW 12,000 FEET WITH NO
       SIGNIFICANT WEATHER AND/OR OBSTRUCTIONS TO VISIBILITY.
       CURRENT SKY AND/OR WEATHER CONDITIONS ARE NOT AVAILABLE FOR
       CHILLICOTHE AND FARMINGTON.

MOZ001>031-035>038-043-044-053-054-272300-
...NORTHERN AND WESTERN MISSOURI...

CITY           SKY/WX    TMP DP  RH WIND       PRES   REMARKS
KANSAS CTY INT PTSUNNY   64  35  34 NE15      30.07F
KANSAS C DTWN  MOSUNNY   66  36  32 E14       30.06F
LEE`S SUMMIT   MOSUNNY   64  35  34 NE15G25   30.07S
ST JOSEPH      MOSUNNY   68  35  29 NE15G23   30.08F
CHILLICOTHE      N/A     69  36  29 NE7G16    30.08F
KIRKSVILLE     SUNNY     66  37  34 NE8G20    30.09S

$$
MOZ066>068-077>081-088>096-101>105-272300-
...SOUTHWEST MISSOURI...

CITY           SKY/WX    TMP DP  RH WIND       PRES   REMARKS
SPRINGFIELD    CLOUDY    65  33  30 NE21G26   29.97F
JOPLIN         PTSUNNY   63  36  36 E13G24    29.97S

$$
MOZ032>034-039>042-045>050-055>058-069>072-272300-
...CENTRAL MISSOURI...

CITY           SKY/WX    TMP DP  RH WIND       PRES   REMARKS
COLUMBIA       PTSUNNY   65  36  34 NE15      30.05F
JEFFERSON CITY MOSUNNY   67  31  26 N14G23    30.05S
SEDALIA        MOSUNNY   67  35  30 NE17G24   30.06F
WHITEMAN AFB   MOSUNNY   67  37  32 NE18G24   30.04F
WARRENSBURG    MOSUNNY   66  34  30 NE13G23   30.05S
OSAGE BEACH    PTSUNNY   66  36  32 NE14G21   30.03F

$$
MOZ051-052-059>065-272300-
...EAST CENTRAL MISSOURI...

CITY           SKY/WX    TMP DP  RH WIND       PRES   REMARKS
ST LOUIS INTL  PTSUNNY   67  36  31 N13G21    30.05S
SPIRIT OF STL  PTSUNNY   66  35  31 NE14      30.03F
ST CHARLES     SUNNY     65  37  35 NE14      30.04S

$$
MOZ072>076-082>087-097>100-106>115-272300-
...SOUTH CENTRAL AND SOUTHEAST MISSOURI...

CITY           SKY/WX    TMP DP  RH WIND       PRES   REMARKS
CAPE GIRARDEAU MOSUNNY   66  40  38 N14       29.99F
FARMINGTON     SUNNY     64  37  36 N10G18    30.06S
POPLAR BLUFF   PTSUNNY   65  38  36 NE14G23   29.97F
WEST PLAINS    PTSUNNY   63  31  30 E12G20    29.98F

$$



USA.gov is the U.S. government's official web portal to all federal, state and local government web resources and services.